Time,TemperatureF,DewpointF,PressureIn,WindDirection,WindDirectionDegrees,WindSpeedMPH,WindSpeedGustMPH,Humidity,HourlyPrecipIn,Conditions,Clouds,dailyrainin,SoftwareType,DateUTC
2013-02-23 00:00:00,36.5,29.6,30.15,NNE,22,0.0,0.0,76,0.00,,,0.04,WUHU21523XXSP,2013-02-23 05:00:00,
2013-02-23 00:05:00,36.5,29.6,30.15,NNE,22,0.0,0.0,76,0.00,,,0.00,WUHU21523XXSP,2013-02-23 05:05:00,
2013-02-23 00:10:00,36.5,29.6,30.15,NNE,22,0.0,0.0,76,0.00,,,0.00,WUHU21523XXSP,2013-02-23 05:10:00,
2013-02-23 00:15:00,36.3,29.4,30.15,NNE,22,0.0,0.0,76,0.00,,,0.00,WUHU21523XXSP,2013-02-23 05:15:00,
2013-02-23 00:20:00,36.3,29.4,30.15,NNE,22,0.0,0.0,76,0.00,,,0.00,WUHU21523XXSP,2013-02-23 05:20:00,
2013-02-23 00:25:00,36.3,29.4,30.15,South,180,0.0,0.0,76,0.00,,,0.00,WUHU21523XXSP,2013-02-23 05:25:00,
2013-02-23 00:35:00,36.3,29.8,30.15,SSW,202,0.0,0.0,77,0.00,,,0.00,WUHU21523XXSP,2013-02-23 05:35:00,
2013-02-23 00:40:00,36.3,29.8,30.16,SSW,202,0.0,0.0,77,0.00,,,0.00,WUHU21523XXSP,2013-02-23 05:40:00,
2013-02-23 00:50:00,36.3,29.8,30.15,South,180,1.8,1.8,77,0.00,,,0.00,WUHU21523XXSP,2013-02-23 05:50:00,
2013-02-23 00:55:00,36.3,29.8,30.15,SSW,202,0.0,1.8,77,0.00,,,0.00,WUHU21523XXSP,2013-02-23 05:55:00,
2013-02-23 01:00:00,36.3,29.8,30.15,SSW,202,0.0,0.0,77,0.00,,,0.00,WUHU21523XXSP,2013-02-23 06:00:00,
2013-02-23 01:05:00,36.3,29.8,30.15,NE,45,0.0,0.0,77,0.00,,,0.00,WUHU21523XXSP,2013-02-23 06:05:00,
2013-02-23 01:10:00,36.3,29.8,30.15,NE,45,0.0,0.0,77,0.00,,,0.00,WUHU21523XXSP,2013-02-23 06:10:00,
2013-02-23 01:15:00,36.1,29.6,30.15,SSW,202,0.0,0.0,77,0.00,,,0.00,WUHU21523XXSP,2013-02-23 06:15:00,
2013-02-23 01:20:00,36.1,29.6,30.15,SSW,202,0.0,0.0,77,0.00,,,0.00,WUHU21523XXSP,2013-02-23 06:20:00,
2013-02-23 01:25:00,36.3,29.8,30.15,South,180,0.0,0.0,77,0.00,,,0.00,WUHU21523XXSP,2013-02-23 06:25:00,
2013-02-23 01:35:00,36.1,29.6,30.15,NE,45,0.0,0.0,77,0.00,,,0.00,WUHU21523XXSP,2013-02-23 06:35:00,
2013-02-23 01:40:00,36.1,29.9,30.14,NE,45,0.0,0.0,78,0.00,,,0.00,WUHU21523XXSP,2013-02-23 06:40:00,
2013-02-23 01:45:00,36.1,29.9,30.13,NE,45,0.0,0.0,78,0.00,,,0.00,WUHU21523XXSP,2013-02-23 06:45:00,
2013-02-23 01:50:00,36.1,29.6,30.13,NE,45,0.0,0.0,77,0.00,,,0.00,WUHU21523XXSP,2013-02-23 06:50:00,
2013-02-23 01:55:00,36.3,29.8,30.13,NE,45,0.0,0.0,77,0.00,,,0.00,WUHU21523XXSP,2013-02-23 06:55:00,
2013-02-23 02:00:00,36.3,30.1,30.13,East,90,0.0,0.0,78,0.00,,,0.00,WUHU21523XXSP,2013-02-23 07:00:00,
2013-02-23 02:05:00,36.3,30.1,30.13,East,90,0.0,0.0,78,0.00,,,0.00,WUHU21523XXSP,2013-02-23 07:05:00,
2013-02-23 02:10:00,36.3,29.8,30.12,East,90,0.0,0.0,77,0.00,,,0.00,WUHU21523XXSP,2013-02-23 07:10:00,
2013-02-23 02:15:00,36.3,30.1,30.10,East,90,0.0,0.0,78,0.00,,,0.00,WUHU21523XXSP,2013-02-23 07:15:00,
2013-02-23 02:20:00,36.1,29.9,30.10,SSW,202,0.0,0.0,78,0.00,,,0.00,WUHU21523XXSP,2013-02-23 07:20:00,
2013-02-23 02:25:00,36.1,29.9,30.10,SSW,202,0.0,0.0,78,0.00,,,0.00,WUHU21523XXSP,2013-02-23 07:25:00,
2013-02-23 02:30:00,36.1,29.9,30.09,NNE,22,0.0,0.0,78,0.00,,,0.00,WUHU21523XXSP,2013-02-23 07:30:00,
2013-02-23 02:35:00,36.1,29.9,30.09,South,180,0.0,0.0,78,0.00,,,0.00,WUHU21523XXSP,2013-02-23 07:35:00,
2013-02-23 02:40:00,36.1,29.9,30.09,South,180,0.0,0.0,78,0.00,,,0.00,WUHU21523XXSP,2013-02-23 07:40:00,
2013-02-23 02:45:00,36.1,29.9,30.10,SSE,157,0.0,0.0,78,0.00,,,0.00,WUHU21523XXSP,2013-02-23 07:45:00,
2013-02-23 02:50:00,36.1,29.9,30.09,SSE,157,0.0,0.0,78,0.00,,,0.00,WUHU21523XXSP,2013-02-23 07:50:00,
2013-02-23 02:55:00,36.1,29.9,30.09,SSE,157,0.0,0.0,78,0.00,,,0.00,WUHU21523XXSP,2013-02-23 07:55:00,
2013-02-23 03:00:00,36.1,29.9,30.09,SSE,157,0.0,0.0,78,0.00,,,0.00,WUHU21523XXSP,2013-02-23 08:00:00,
2013-02-23 03:05:00,36.1,29.9,30.10,SSE,157,0.0,0.0,78,0.00,,,0.00,WUHU21523XXSP,2013-02-23 08:05:00,
2013-02-23 03:10:00,36.1,29.9,30.10,SSE,157,0.0,0.0,78,0.00,,,0.00,WUHU21523XXSP,2013-02-23 08:10:00,
2013-02-23 03:15:00,36.1,29.9,30.09,SSE,157,0.0,0.0,78,0.00,,,0.00,WUHU21523XXSP,2013-02-23 08:15:00,
2013-02-23 03:20:00,36.1,29.6,30.09,SSE,157,0.0,0.0,77,0.00,,,0.00,WUHU21523XXSP,2013-02-23 08:20:00,
2013-02-23 03:25:00,36.1,29.6,30.08,SSE,157,0.0,0.0,77,0.00,,,0.00,WUHU21523XXSP,2013-02-23 08:25:00,
2013-02-23 03:30:00,36.1,29.6,30.07,SSE,157,0.0,0.0,77,0.00,,,0.00,WUHU21523XXSP,2013-02-23 08:30:00,
2013-02-23 03:35:00,36.1,29.6,30.07,SSE,157,0.0,0.0,77,0.00,,,0.00,WUHU21523XXSP,2013-02-23 08:35:00,
2013-02-23 03:40:00,36.1,29.6,30.06,SSE,157,0.0,0.0,77,0.00,,,0.00,WUHU21523XXSP,2013-02-23 08:40:00,
2013-02-23 03:45:00,36.0,29.4,30.06,ESE,112,0.0,0.0,77,0.00,,,0.00,WUHU21523XXSP,2013-02-23 08:45:00,
2013-02-23 03:50:00,36.0,29.7,30.06,ESE,112,0.0,0.0,78,0.00,,,0.00,WUHU21523XXSP,2013-02-23 08:50:00,
2013-02-23 03:55:00,36.0,29.7,30.07,ESE,112,0.0,0.0,78,0.00,,,0.00,WUHU21523XXSP,2013-02-23 08:55:00,
2013-02-23 04:00:00,36.0,29.7,30.06,ENE,67,0.0,0.0,78,0.00,,,0.00,WUHU21523XXSP,2013-02-23 09:00:00,
2013-02-23 04:05:00,36.0,29.7,30.05,ENE,67,0.0,0.0,78,0.00,,,0.00,WUHU21523XXSP,2013-02-23 09:05:00,
2013-02-23 04:10:00,36.0,29.7,30.06,ENE,67,0.0,0.0,78,0.00,,,0.00,WUHU21523XXSP,2013-02-23 09:10:00,
2013-02-23 04:15:00,35.8,29.2,30.06,ENE,67,0.0,0.0,77,0.00,,,0.00,WUHU21523XXSP,2013-02-23 09:15:00,
2013-02-23 04:20:00,35.8,29.6,30.07,WNW,292,0.0,0.0,78,0.00,,,0.00,WUHU21523XXSP,2013-02-23 09:20:00,
2013-02-23 04:25:00,35.8,29.6,30.06,WNW,292,0.0,0.0,78,0.00,,,0.00,WUHU21523XXSP,2013-02-23 09:25:00,
2013-02-23 04:30:00,35.8,29.6,30.06,WNW,292,0.0,0.0,78,0.00,,,0.00,WUHU21523XXSP,2013-02-23 09:30:00,
2013-02-23 04:35:00,35.8,29.6,30.06,WNW,292,0.0,0.0,78,0.00,,,0.00,WUHU21523XXSP,2013-02-23 09:35:00,
2013-02-23 04:40:00,35.8,29.6,30.06,WNW,292,0.0,0.0,78,0.00,,,0.00,WUHU21523XXSP,2013-02-23 09:40:00,
2013-02-23 04:45:00,35.8,29.6,30.06,WNW,292,0.0,0.0,78,0.00,,,0.00,WUHU21523XXSP,2013-02-23 09:45:00,
2013-02-23 04:50:00,35.8,29.6,30.06,WNW,292,0.0,0.0,78,0.00,,,0.00,WUHU21523XXSP,2013-02-23 09:50:00,
2013-02-23 04:55:00,35.8,29.6,30.06,NE,45,0.0,0.0,78,0.00,,,0.00,WUHU21523XXSP,2013-02-23 09:55:00,
2013-02-23 05:00:00,35.8,29.6,30.06,NE,45,0.0,0.0,78,0.00,,,0.00,WUHU21523XXSP,2013-02-23 10:00:00,
2013-02-23 05:05:00,35.8,29.6,30.06,NE,45,0.0,0.0,78,0.00,,,0.00,WUHU21523XXSP,2013-02-23 10:05:00,
2013-02-23 05:10:00,35.8,29.6,30.05,NE,45,0.0,0.0,78,0.00,,,0.00,WUHU21523XXSP,2013-02-23 10:10:00,
2013-02-23 05:15:00,35.8,29.6,30.06,NE,45,0.0,0.0,78,0.00,,,0.00,WUHU21523XXSP,2013-02-23 10:15:00,
2013-02-23 05:20:00,35.8,29.9,30.07,NE,45,0.0,0.0,79,0.00,,,0.00,WUHU21523XXSP,2013-02-23 10:20:00,
2013-02-23 05:25:00,35.8,29.9,30.07,NE,45,0.0,0.0,79,0.00,,,0.00,WUHU21523XXSP,2013-02-23 10:25:00,
2013-02-23 05:30:00,35.8,29.9,30.07,NE,45,0.0,0.0,79,0.00,,,0.00,WUHU21523XXSP,2013-02-23 10:30:00,
2013-02-23 05:35:00,36.0,30.1,30.07,NE,45,0.0,0.0,79,0.00,,,0.00,WUHU21523XXSP,2013-02-23 10:35:00,
2013-02-23 05:40:00,35.8,29.9,30.07,NE,45,0.0,0.0,79,0.00,,,0.00,WUHU21523XXSP,2013-02-23 10:40:00,
2013-02-23 05:45:00,35.8,29.9,30.06,NE,45,0.0,0.0,79,0.00,,,0.00,WUHU21523XXSP,2013-02-23 10:45:00,
2013-02-23 05:50:00,35.8,29.9,30.06,NE,45,0.0,0.0,79,0.00,,,0.00,WUHU21523XXSP,2013-02-23 10:50:00,
2013-02-23 05:55:00,35.8,29.9,30.06,NE,45,0.0,0.0,79,0.00,,,0.00,WUHU21523XXSP,2013-02-23 10:55:00,
2013-02-23 06:00:00,35.8,29.9,30.05,NE,45,0.0,0.0,79,0.00,,,0.00,WUHU21523XXSP,2013-02-23 11:00:00,
2013-02-23 06:05:00,35.8,29.9,30.04,NE,45,0.0,0.0,79,0.00,,,0.00,WUHU21523XXSP,2013-02-23 11:05:00,
2013-02-23 06:10:00,35.8,30.2,30.03,NE,45,0.0,0.0,80,0.00,,,0.00,WUHU21523XXSP,2013-02-23 11:10:00,
2013-02-23 06:15:00,35.8,30.2,30.02,NE,45,0.0,0.0,80,0.00,,,0.00,WUHU21523XXSP,2013-02-23 11:15:00,
2013-02-23 06:20:00,35.8,30.2,30.02,NE,45,0.0,0.0,80,0.00,,,0.00,WUHU21523XXSP,2013-02-23 11:20:00,
2013-02-23 06:25:00,35.8,30.5,30.02,NE,45,0.0,0.0,81,0.00,,,0.00,WUHU21523XXSP,2013-02-23 11:25:00,
2013-02-23 06:30:00,35.8,30.5,30.02,NE,45,0.0,0.0,81,0.00,,,0.00,WUHU21523XXSP,2013-02-23 11:30:00,
2013-02-23 06:35:00,35.8,30.5,30.03,NE,45,0.0,0.0,81,0.00,,,0.00,WUHU21523XXSP,2013-02-23 11:35:00,
2013-02-23 06:40:00,35.8,30.5,30.03,NE,45,0.0,0.0,81,0.00,,,0.00,WUHU21523XXSP,2013-02-23 11:40:00,
2013-02-23 06:45:00,35.8,30.5,30.02,NE,45,0.0,0.0,81,0.00,,,0.00,WUHU21523XXSP,2013-02-23 11:45:00,
2013-02-23 06:50:00,35.8,30.5,30.02,NE,45,0.0,0.0,81,0.00,,,0.00,WUHU21523XXSP,2013-02-23 11:50:00,
2013-02-23 06:55:00,35.8,30.5,30.04,NE,45,0.0,0.0,81,0.00,,,0.00,WUHU21523XXSP,2013-02-23 11:55:00,
2013-02-23 07:00:00,35.8,30.5,30.02,SSE,157,0.0,0.0,81,0.00,,,0.00,WUHU21523XXSP,2013-02-23 12:00:00,
2013-02-23 07:05:00,35.8,30.5,30.03,SSE,157,0.0,0.0,81,0.00,,,0.00,WUHU21523XXSP,2013-02-23 12:05:00,
2013-02-23 07:10:00,35.8,30.5,30.04,SSE,157,0.0,0.0,81,0.00,,,0.00,WUHU21523XXSP,2013-02-23 12:10:00,
2013-02-23 07:15:00,36.0,30.7,30.04,SSE,157,0.0,0.0,81,0.00,,,0.00,WUHU21523XXSP,2013-02-23 12:15:00,
2013-02-23 07:25:00,35.8,30.8,30.03,SSE,157,0.0,0.0,82,0.00,,,0.00,WUHU21523XXSP,2013-02-23 12:25:00,
2013-02-23 07:30:00,35.8,30.8,30.04,SSE,157,0.0,0.0,82,0.00,,,0.00,WUHU21523XXSP,2013-02-23 12:30:00,
2013-02-23 07:35:00,36.0,31.0,30.04,SSE,157,0.0,0.0,82,0.00,,,0.00,WUHU21523XXSP,2013-02-23 12:35:00,
2013-02-23 07:40:00,36.0,31.0,30.03,SSE,157,0.0,0.0,82,0.00,,,0.00,WUHU21523XXSP,2013-02-23 12:40:00,
2013-02-23 07:45:00,36.0,31.0,30.03,SSE,157,0.0,0.0,82,0.00,,,0.00,WUHU21523XXSP,2013-02-23 12:45:00,
2013-02-23 07:50:00,36.0,31.0,30.04,SSE,157,0.0,0.0,82,0.00,,,0.00,WUHU21523XXSP,2013-02-23 12:50:00,
2013-02-23 07:55:00,36.1,31.1,30.03,SSE,157,0.0,0.0,82,0.00,,,0.00,WUHU21523XXSP,2013-02-23 12:55:00,
2013-02-23 08:00:00,36.1,31.1,30.04,SSE,157,0.0,0.0,82,0.00,,,0.00,WUHU21523XXSP,2013-02-23 13:00:00,
2013-02-23 08:05:00,36.3,31.3,30.03,SSE,157,0.0,0.0,82,0.00,,,0.00,WUHU21523XXSP,2013-02-23 13:05:00,
2013-02-23 08:10:00,36.3,31.3,30.03,SSE,157,0.0,0.0,82,0.00,,,0.00,WUHU21523XXSP,2013-02-23 13:10:00,
2013-02-23 08:15:00,36.3,31.3,30.03,SSE,157,0.0,0.0,82,0.00,,,0.00,WUHU21523XXSP,2013-02-23 13:15:00,
2013-02-23 08:20:00,36.3,31.3,30.03,SSE,157,0.0,0.0,82,0.00,,,0.00,WUHU21523XXSP,2013-02-23 13:20:00,
2013-02-23 08:25:00,36.3,31.3,30.02,SSE,157,0.0,0.0,82,0.00,,,0.00,WUHU21523XXSP,2013-02-23 13:25:00,
2013-02-23 08:30:00,36.3,31.3,30.03,SSE,157,0.0,0.0,82,0.00,,,0.00,WUHU21523XXSP,2013-02-23 13:30:00,
2013-02-23 08:35:00,36.3,31.3,30.02,SSE,157,0.0,0.0,82,0.00,,,0.00,WUHU21523XXSP,2013-02-23 13:35:00,
2013-02-23 08:40:00,36.3,31.3,30.02,SSE,157,0.0,0.0,82,0.00,,,0.00,WUHU21523XXSP,2013-02-23 13:40:00,
2013-02-23 08:45:00,36.3,31.3,30.03,SSE,157,0.0,0.0,82,0.00,,,0.00,WUHU21523XXSP,2013-02-23 13:45:00,
2013-02-23 08:50:00,36.3,31.3,30.02,SSE,157,0.0,0.0,82,0.00,,,0.00,WUHU21523XXSP,2013-02-23 13:50:00,
2013-02-23 08:55:00,36.3,31.3,30.02,East,90,0.0,0.0,82,0.00,,,0.00,WUHU21523XXSP,2013-02-23 13:55:00,
2013-02-23 09:00:00,36.3,31.3,30.02,East,90,0.0,0.0,82,0.00,,,0.00,WUHU21523XXSP,2013-02-23 14:00:00,
2013-02-23 09:10:00,36.5,31.5,30.01,East,90,0.0,0.0,82,0.00,,,0.00,WUHU21523XXSP,2013-02-23 14:10:00,
2013-02-23 09:15:00,36.5,31.5,30.01,East,90,0.0,0.0,82,0.00,,,0.00,WUHU21523XXSP,2013-02-23 14:15:00,
2013-02-23 09:20:00,36.7,31.7,30.00,East,90,0.0,0.0,82,0.00,,,0.00,WUHU21523XXSP,2013-02-23 14:20:00,
2013-02-23 09:25:00,36.7,31.7,30.00,East,90,0.0,0.0,82,0.00,,,0.00,WUHU21523XXSP,2013-02-23 14:25:00,
2013-02-23 09:30:00,36.7,31.7,30.00,East,90,0.0,0.0,82,0.00,,,0.00,WUHU21523XXSP,2013-02-23 14:30:00,
2013-02-23 09:35:00,37.0,32.0,30.00,East,90,0.0,0.0,82,0.00,,,0.00,WUHU21523XXSP,2013-02-23 14:35:00,
2013-02-23 09:40:00,37.0,32.0,29.99,East,90,0.0,0.0,82,0.00,,,0.00,WUHU21523XXSP,2013-02-23 14:40:00,
2013-02-23 09:45:00,37.2,32.2,30.00,East,90,0.0,0.0,82,0.00,,,0.00,WUHU21523XXSP,2013-02-23 14:45:00,
2013-02-23 09:50:00,37.2,32.2,29.99,East,90,0.0,0.0,82,0.00,,,0.00,WUHU21523XXSP,2013-02-23 14:50:00,
2013-02-23 09:55:00,37.2,32.2,29.99,East,90,0.0,0.0,82,0.00,,,0.00,WUHU21523XXSP,2013-02-23 14:55:00,
2013-02-23 10:00:00,37.2,32.2,30.00,East,90,0.0,0.0,82,0.00,,,0.00,WUHU21523XXSP,2013-02-23 15:00:00,
2013-02-23 10:05:00,37.2,32.2,30.00,SSE,157,0.0,0.0,82,0.00,,,0.00,WUHU21523XXSP,2013-02-23 15:05:00,
2013-02-23 10:10:00,37.4,32.7,29.99,SSE,157,0.0,0.0,83,0.00,,,0.00,WUHU21523XXSP,2013-02-23 15:10:00,
2013-02-23 10:15:00,37.6,32.6,29.99,SSE,157,0.0,0.0,82,0.00,,,0.00,WUHU21523XXSP,2013-02-23 15:15:00,
2013-02-23 10:20:00,37.8,32.8,29.99,SSE,157,0.0,0.0,82,0.00,,,0.00,WUHU21523XXSP,2013-02-23 15:20:00,
2013-02-23 10:25:00,37.9,32.9,29.99,SSE,157,0.0,0.0,82,0.00,,,0.00,WUHU21523XXSP,2013-02-23 15:25:00,
2013-02-23 10:30:00,37.9,32.9,29.99,SSE,157,0.0,0.0,82,0.00,,,0.00,WUHU21523XXSP,2013-02-23 15:30:00,
2013-02-23 10:35:00,37.9,32.9,29.99,SSE,157,0.0,0.0,82,0.00,,,0.00,WUHU21523XXSP,2013-02-23 15:35:00,
2013-02-23 10:40:00,38.1,33.1,29.99,NW,315,0.0,0.0,82,0.00,,,0.00,WUHU21523XXSP,2013-02-23 15:40:00,
2013-02-23 10:45:00,38.3,33.3,29.99,NW,315,0.0,0.0,82,0.00,,,0.00,WUHU21523XXSP,2013-02-23 15:45:00,
2013-02-23 10:50:00,38.3,33.3,29.99,NW,315,0.0,0.0,82,0.00,,,0.00,WUHU21523XXSP,2013-02-23 15:50:00,
2013-02-23 10:55:00,38.5,33.5,29.99,NW,315,0.0,0.0,82,0.00,,,0.00,WUHU21523XXSP,2013-02-23 15:55:00,
2013-02-23 11:00:00,38.8,33.5,29.99,NNW,337,2.5,2.5,81,0.00,,,0.00,WUHU21523XXSP,2013-02-23 16:00:00,
2013-02-23 11:05:00,38.8,33.5,30.00,NNW,337,2.5,2.5,81,0.00,,,0.00,WUHU21523XXSP,2013-02-23 16:05:00,
2013-02-23 11:10:00,38.8,33.8,30.00,NW,315,0.0,2.5,82,0.00,,,0.00,WUHU21523XXSP,2013-02-23 16:10:00,
2013-02-23 11:15:00,39.0,33.8,30.00,NW,315,0.0,0.2,82,0.00,,,0.00,WUHU21523XXSP,2013-02-23 16:15:00,
2013-02-23 11:20:00,39.0,33.7,30.00,NNW,337,0.0,0.9,81,0.00,,,0.00,WUHU21523XXSP,2013-02-23 16:20:00,
2013-02-23 11:25:00,39.0,33.7,29.99,NE,45,0.0,0.9,81,0.00,,,0.00,WUHU21523XXSP,2013-02-23 16:25:00,
2013-02-23 11:30:00,39.0,34.0,29.99,North,0,0.0,0.0,82,0.00,,,0.00,WUHU21523XXSP,2013-02-23 16:30:00,
2013-02-23 11:40:00,39.7,34.7,29.99,NNW,337,0.0,0.0,82,0.00,,,0.00,WUHU21523XXSP,2013-02-23 16:40:00,
2013-02-23 11:45:00,39.9,34.8,29.99,NNW,337,1.8,1.8,82,0.00,,,0.00,WUHU21523XXSP,2013-02-23 16:45:00,
2013-02-23 11:50:00,40.3,35.2,29.99,NE,45,0.0,1.8,82,0.00,,,0.00,WUHU21523XXSP,2013-02-23 16:50:00,
2013-02-23 11:55:00,40.5,35.3,29.99,WNW,292,0.0,0.0,81,0.00,,,0.00,WUHU21523XXSP,2013-02-23 16:55:00,
2013-02-23 12:00:00,40.5,35.0,29.99,West,270,0.0,0.0,81,0.00,,,0.00,WUHU21523XXSP,2013-02-23 17:00:00,
2013-02-23 12:05:00,40.6,35.2,29.98,WNW,292,0.0,0.0,81,0.00,,,0.00,WUHU21523XXSP,2013-02-23 17:05:00,
2013-02-23 12:10:00,40.8,35.4,29.98,WNW,292,0.0,0.0,81,0.00,,,0.00,WUHU21523XXSP,2013-02-23 17:10:00,
2013-02-23 12:15:00,40.8,35.4,29.97,SSE,157,0.7,0.7,81,0.00,,,0.00,WUHU21523XXSP,2013-02-23 17:15:00,
2013-02-23 12:20:00,41.2,35.4,29.97,WNW,292,0.0,0.7,80,0.00,,,0.00,WUHU21523XXSP,2013-02-23 17:20:00,
2013-02-23 12:25:00,41.5,35.8,29.97,WNW,292,0.0,0.0,80,0.00,,,0.00,WUHU21523XXSP,2013-02-23 17:25:00,
2013-02-23 12:30:00,41.7,36.0,29.97,WNW,292,0.0,0.0,80,0.00,,,0.00,WUHU21523XXSP,2013-02-23 17:30:00,
2013-02-23 12:35:00,41.9,36.4,29.97,WSW,247,0.0,0.0,81,0.00,,,0.00,WUHU21523XXSP,2013-02-23 17:35:00,
2013-02-23 12:40:00,42.4,36.7,29.96,NW,315,0.0,0.0,80,0.00,,,0.00,WUHU21523XXSP,2013-02-23 17:40:00,
2013-02-23 12:45:00,42.6,36.9,29.96,WNW,292,0.0,0.0,80,0.00,,,0.00,WUHU21523XXSP,2013-02-23 17:45:00,
2013-02-23 12:50:00,43.2,37.4,29.96,North,0,1.8,1.8,80,0.00,,,0.00,WUHU21523XXSP,2013-02-23 17:50:00,
2013-02-23 12:55:00,43.3,37.4,29.95,NNE,22,0.0,1.8,80,0.00,,,0.00,WUHU21523XXSP,2013-02-23 17:55:00,
2013-02-23 13:00:00,43.7,37.4,29.94,NNW,337,0.0,1.8,79,0.00,,,0.00,WUHU21523XXSP,2013-02-23 18:00:00,
2013-02-23 13:05:00,43.9,37.4,29.95,NNW,327,1.2,1.3,78,0.00,,,0.00,WUHU21523XXSP,2013-02-23 18:05:00,
2013-02-23 13:10:00,44.1,37.6,29.95,WNW,292,0.0,1.3,78,0.00,,,0.00,WUHU21523XXSP,2013-02-23 18:10:00,
2013-02-23 13:15:00,44.2,38.1,29.94,NE,45,0.0,1.1,79,0.00,,,0.00,WUHU21523XXSP,2013-02-23 18:15:00,
2013-02-23 13:20:00,44.4,38.0,29.94,NW,315,0.0,0.0,78,0.00,,,0.00,WUHU21523XXSP,2013-02-23 18:20:00,
2013-02-23 13:25:00,44.6,38.2,29.93,NE,45,0.0,0.0,78,0.00,,,0.00,WUHU21523XXSP,2013-02-23 18:25:00,
2013-02-23 13:30:00,44.8,38.2,29.93,NW,315,0.0,0.0,78,0.00,,,0.00,WUHU21523XXSP,2013-02-23 18:30:00,
2013-02-23 13:35:00,45.0,38.5,29.93,NE,45,4.7,4.7,78,0.00,,,0.00,WUHU21523XXSP,2013-02-23 18:35:00,
2013-02-23 13:40:00,45.1,38.7,29.92,NE,45,1.3,4.7,78,0.00,,,0.00,WUHU21523XXSP,2013-02-23 18:40:00,
2013-02-23 13:45:00,45.7,39.2,29.92,NNE,22,2.9,4.7,78,0.00,,,0.00,WUHU21523XXSP,2013-02-23 18:45:00,
2013-02-23 13:50:00,46.0,39.6,29.92,WSW,247,0.0,2.9,78,0.00,,,0.00,WUHU21523XXSP,2013-02-23 18:50:00,
2013-02-23 13:55:00,46.6,40.1,29.92,WSW,247,0.0,0.0,78,0.00,,,0.00,WUHU21523XXSP,2013-02-23 18:55:00,
2013-02-23 14:05:00,47.3,40.4,29.91,South,180,0.0,0.0,77,0.00,,,0.00,WUHU21523XXSP,2013-02-23 19:05:00,
2013-02-23 14:10:00,47.5,40.6,29.91,SSE,157,0.0,0.0,77,0.00,,,0.00,WUHU21523XXSP,2013-02-23 19:10:00,
2013-02-23 14:15:00,48.0,41.1,29.90,ENE,67,0.0,0.0,77,0.00,,,0.00,WUHU21523XXSP,2013-02-23 19:15:00,
2013-02-23 14:20:00,48.6,41.6,29.90,South,180,1.1,2.5,77,0.00,,,0.00,WUHU21523XXSP,2013-02-23 19:20:00,
2013-02-23 14:25:00,48.9,41.6,29.90,ESE,112,0.0,2.5,76,0.00,,,0.00,WUHU21523XXSP,2013-02-23 19:25:00,
2013-02-23 14:30:00,48.9,41.6,29.89,ESE,112,0.0,1.1,76,0.00,,,0.00,WUHU21523XXSP,2013-02-23 19:30:00,
2013-02-23 14:35:00,49.3,41.6,29.89,SSE,157,0.0,0.0,75,0.00,,,0.00,WUHU21523XXSP,2013-02-23 19:35:00,
2013-02-23 14:40:00,49.6,42.0,29.89,SSE,157,0.0,0.0,75,0.00,,,0.00,WUHU21523XXSP,2013-02-23 19:40:00,
2013-02-23 14:45:00,49.8,42.2,29.90,SSE,157,0.0,0.0,75,0.00,,,0.00,WUHU21523XXSP,2013-02-23 19:45:00,
2013-02-23 14:50:00,49.8,41.8,29.90,SE,135,0.0,0.0,74,0.00,,,0.00,WUHU21523XXSP,2013-02-23 19:50:00,
2013-02-23 14:55:00,50.2,42.2,29.89,SE,135,0.0,0.0,74,0.00,,,0.00,WUHU21523XXSP,2013-02-23 19:55:00,
2013-02-23 15:00:00,50.2,42.2,29.89,NE,45,0.0,0.0,74,0.00,,,0.00,WUHU21523XXSP,2013-02-23 20:00:00,
2013-02-23 15:05:00,50.5,42.5,29.89,SSW,202,1.3,1.3,74,0.00,,,0.00,WUHU21523XXSP,2013-02-23 20:05:00,
2013-02-23 15:10:00,50.7,42.4,29.89,South,180,0.9,1.3,73,0.00,,,0.00,WUHU21523XXSP,2013-02-23 20:10:00,
2013-02-23 15:15:00,50.9,42.9,29.89,South,180,0.0,1.3,74,0.00,,,0.00,WUHU21523XXSP,2013-02-23 20:15:00,
2013-02-23 15:20:00,51.1,42.7,29.89,SSE,157,0.0,0.0,73,0.00,,,0.00,WUHU21523XXSP,2013-02-23 20:20:00,
2013-02-23 15:25:00,51.1,42.7,29.88,ENE,67,0.0,0.0,73,0.00,,,0.00,WUHU21523XXSP,2013-02-23 20:25:00,
2013-02-23 15:30:00,51.1,42.4,29.89,ENE,67,0.0,0.0,72,0.00,,,0.00,WUHU21523XXSP,2013-02-23 20:30:00,
2013-02-23 15:35:00,51.1,42.4,29.88,ENE,67,0.0,0.0,72,0.00,,,0.00,WUHU21523XXSP,2013-02-23 20:35:00,
2013-02-23 15:40:00,51.1,42.4,29.88,ENE,67,0.0,0.0,72,0.00,,,0.00,WUHU21523XXSP,2013-02-23 20:40:00,
2013-02-23 15:45:00,51.4,43.1,29.88,South,180,0.0,0.0,73,0.00,,,0.00,WUHU21523XXSP,2013-02-23 20:45:00,
2013-02-23 15:50:00,51.6,43.3,29.88,South,180,0.0,0.0,73,0.00,,,0.00,WUHU21523XXSP,2013-02-23 20:50:00,
2013-02-23 15:55:00,51.6,43.3,29.88,South,180,0.0,0.0,73,0.00,,,0.00,WUHU21523XXSP,2013-02-23 20:55:00,
2013-02-23 16:05:00,51.6,42.9,29.88,West,270,0.0,0.0,72,0.00,,,0.00,WUHU21523XXSP,2013-02-23 21:05:00,
2013-02-23 16:10:00,51.8,43.1,29.88,West,270,0.0,0.0,72,0.00,,,0.00,WUHU21523XXSP,2013-02-23 21:10:00,
2013-02-23 16:15:00,51.6,42.6,29.88,WNW,292,0.0,0.0,71,0.00,,,0.00,WUHU21523XXSP,2013-02-23 21:15:00,
2013-02-23 16:20:00,51.6,42.6,29.87,WNW,292,0.0,0.0,71,0.00,,,0.00,WUHU21523XXSP,2013-02-23 21:20:00,
2013-02-23 16:25:00,51.8,42.8,29.88,WNW,292,0.0,0.0,71,0.00,,,0.00,WUHU21523XXSP,2013-02-23 21:25:00,
2013-02-23 16:30:00,52.0,43.3,29.87,WNW,292,17.4,17.4,72,0.00,,,0.00,WUHU21523XXSP,2013-02-23 21:30:00,
2013-02-23 16:35:00,52.0,42.9,29.87,WNW,292,0.0,17.4,71,0.00,,,0.00,WUHU21523XXSP,2013-02-23 21:35:00,
2013-02-23 16:40:00,51.8,42.8,29.87,NNW,337,0.0,0.0,71,0.00,,,0.00,WUHU21523XXSP,2013-02-23 21:40:00,
2013-02-23 16:45:00,52.0,42.9,29.88,NNW,337,0.0,0.0,71,0.00,,,0.00,WUHU21523XXSP,2013-02-23 21:45:00,
2013-02-23 16:50:00,52.3,43.3,29.87,WSW,247,0.0,0.0,71,0.00,,,0.00,WUHU21523XXSP,2013-02-23 21:50:00,
2013-02-23 16:55:00,52.3,43.3,29.87,WSW,247,0.0,0.0,71,0.00,,,0.00,WUHU21523XXSP,2013-02-23 21:55:00,
2013-02-23 17:00:00,52.3,43.3,29.87,WSW,247,0.0,0.0,71,0.00,,,0.00,WUHU21523XXSP,2013-02-23 22:00:00,
2013-02-23 17:05:00,52.2,43.1,29.88,WSW,247,0.0,0.0,71,0.00,,,0.00,WUHU21523XXSP,2013-02-23 22:05:00,
2013-02-23 17:10:00,52.2,43.1,29.88,WSW,247,0.0,0.0,71,0.00,,,0.00,WUHU21523XXSP,2013-02-23 22:10:00,
2013-02-23 17:15:00,52.0,42.9,29.87,WSW,247,0.0,0.0,71,0.00,,,0.00,WUHU21523XXSP,2013-02-23 22:15:00,
2013-02-23 17:20:00,52.0,42.9,29.86,WSW,247,0.0,0.0,71,0.00,,,0.00,WUHU21523XXSP,2013-02-23 22:20:00,
2013-02-23 17:25:00,52.0,42.9,29.87,WSW,247,0.0,0.0,71,0.00,,,0.00,WUHU21523XXSP,2013-02-23 22:25:00,
2013-02-23 17:30:00,51.8,42.8,29.87,WSW,247,0.0,0.0,71,0.00,,,0.00,WUHU21523XXSP,2013-02-23 22:30:00,
2013-02-23 17:35:00,51.6,42.6,29.86,WSW,247,0.0,0.0,71,0.00,,,0.00,WUHU21523XXSP,2013-02-23 22:35:00,
2013-02-23 17:40:00,51.4,42.4,29.86,WSW,247,0.0,0.0,71,0.00,,,0.00,WUHU21523XXSP,2013-02-23 22:40:00,
2013-02-23 17:45:00,51.4,42.4,29.86,WSW,247,0.0,0.0,71,0.00,,,0.00,WUHU21523XXSP,2013-02-23 22:45:00,
2013-02-23 17:55:00,50.9,42.2,29.86,WSW,247,0.0,0.0,72,0.00,,,0.00,WUHU21523XXSP,2013-02-23 22:55:00,
2013-02-23 18:00:00,50.7,42.0,29.86,WSW,247,0.0,0.0,72,0.00,,,0.00,WUHU21523XXSP,2013-02-23 23:00:00,
2013-02-23 18:10:00,50.2,41.5,29.85,WSW,247,0.0,0.0,72,0.00,,,0.00,WUHU21523XXSP,2013-02-23 23:10:00,
2013-02-23 18:15:00,49.8,41.1,29.86,WSW,247,0.0,0.0,72,0.00,,,0.00,WUHU21523XXSP,2013-02-23 23:15:00,
2013-02-23 18:20:00,49.6,41.3,29.85,WSW,247,0.0,0.0,73,0.00,,,0.00,WUHU21523XXSP,2013-02-23 23:20:00,
2013-02-23 18:25:00,49.6,41.3,29.85,WSW,247,0.0,0.0,73,0.00,,,0.00,WUHU21523XXSP,2013-02-23 23:25:00,
2013-02-23 18:30:00,49.3,40.9,29.85,WSW,247,0.0,0.0,73,0.00,,,0.00,WUHU21523XXSP,2013-02-23 23:30:00,
2013-02-23 18:35:00,49.1,40.8,29.85,WSW,247,0.0,0.0,73,0.00,,,0.00,WUHU21523XXSP,2013-02-23 23:35:00,
2013-02-23 18:40:00,48.9,40.6,29.85,WSW,247,0.0,0.0,73,0.00,,,0.00,WUHU21523XXSP,2013-02-23 23:40:00,
2013-02-23 18:45:00,48.7,40.4,29.85,WSW,247,0.0,0.0,73,0.00,,,0.00,WUHU21523XXSP,2013-02-23 23:45:00,
2013-02-23 18:50:00,48.7,40.4,29.84,WSW,247,0.0,0.0,73,0.00,,,0.00,WUHU21523XXSP,2013-02-23 23:50:00,
2013-02-23 18:55:00,48.7,40.4,29.84,WSW,247,0.0,0.0,73,0.00,,,0.00,WUHU21523XXSP,2013-02-23 23:55:00,
2013-02-23 19:00:00,48.6,40.6,29.84,WSW,247,0.0,0.0,74,0.00,,,0.00,WUHU21523XXSP,2013-02-24 00:00:00,
2013-02-23 19:05:00,48.4,40.4,29.84,WSW,247,0.0,0.0,74,0.00,,,0.00,WUHU21523XXSP,2013-02-24 00:05:00,
2013-02-23 19:10:00,48.2,40.2,29.84,WSW,247,0.0,0.0,74,0.00,,,0.00,WUHU21523XXSP,2013-02-24 00:10:00,
2013-02-23 19:15:00,48.0,40.0,29.84,WSW,247,0.0,0.0,74,0.00,,,0.00,WUHU21523XXSP,2013-02-24 00:15:00,
2013-02-23 19:20:00,48.0,40.0,29.84,WSW,247,0.0,0.0,74,0.00,,,0.00,WUHU21523XXSP,2013-02-24 00:20:00,
2013-02-23 19:25:00,47.8,40.2,29.84,WSW,247,0.0,0.0,75,0.00,,,0.00,WUHU21523XXSP,2013-02-24 00:25:00,
2013-02-23 19:30:00,47.8,40.2,29.84,WSW,247,0.0,0.0,75,0.00,,,0.00,WUHU21523XXSP,2013-02-24 00:30:00,
2013-02-23 19:35:00,47.5,39.9,29.83,WSW,247,0.0,0.0,75,0.00,,,0.00,WUHU21523XXSP,2013-02-24 00:35:00,
2013-02-23 19:40:00,47.5,39.9,29.84,WSW,247,0.0,0.0,75,0.00,,,0.00,WUHU21523XXSP,2013-02-24 00:40:00,
2013-02-23 19:45:00,47.3,39.7,29.83,WSW,247,0.0,0.0,75,0.00,,,0.00,WUHU21523XXSP,2013-02-24 00:45:00,
2013-02-23 19:50:00,47.1,39.6,29.84,WSW,247,0.0,0.0,75,0.00,,,0.00,WUHU21523XXSP,2013-02-24 00:50:00,
2013-02-23 19:55:00,47.1,39.6,29.83,WSW,247,0.0,0.0,75,0.00,,,0.00,WUHU21523XXSP,2013-02-24 00:55:00,
2013-02-23 20:00:00,47.1,39.6,29.83,WSW,247,0.0,0.0,75,0.00,,,0.00,WUHU21523XXSP,2013-02-24 01:00:00,
2013-02-23 20:05:00,46.9,39.8,29.83,WSW,247,0.0,0.0,76,0.00,,,0.00,WUHU21523XXSP,2013-02-24 01:05:00,
2013-02-23 20:10:00,46.8,39.6,29.84,WSW,247,0.0,0.0,76,0.00,,,0.00,WUHU21523XXSP,2013-02-24 01:10:00,
2013-02-23 20:15:00,46.8,39.6,29.84,WSW,247,0.0,0.0,76,0.00,,,0.00,WUHU21523XXSP,2013-02-24 01:15:00,
2013-02-23 20:20:00,46.6,39.4,29.83,WSW,247,0.0,0.0,76,0.00,,,0.00,WUHU21523XXSP,2013-02-24 01:20:00,
2013-02-23 20:25:00,46.6,39.4,29.83,WSW,247,0.0,0.0,76,0.00,,,0.00,WUHU21523XXSP,2013-02-24 01:25:00,
2013-02-23 20:30:00,46.6,39.4,29.83,WSW,247,0.0,0.0,76,0.00,,,0.00,WUHU21523XXSP,2013-02-24 01:30:00,
2013-02-23 20:35:00,46.2,39.1,29.83,WSW,247,0.0,0.0,76,0.00,,,0.00,WUHU21523XXSP,2013-02-24 01:35:00,
2013-02-23 20:40:00,46.2,39.1,29.83,WSW,247,0.0,0.0,76,0.00,,,0.00,WUHU21523XXSP,2013-02-24 01:40:00,
2013-02-23 20:45:00,46.2,39.1,29.83,WSW,247,0.0,0.0,76,0.00,,,0.00,WUHU21523XXSP,2013-02-24 01:45:00,
2013-02-23 20:50:00,46.2,39.4,29.83,WSW,247,0.0,0.0,77,0.00,,,0.00,WUHU21523XXSP,2013-02-24 01:50:00,
2013-02-23 20:55:00,46.0,39.3,29.83,WSW,247,0.0,0.0,77,0.00,,,0.00,WUHU21523XXSP,2013-02-24 01:55:00,
2013-02-23 21:00:00,46.0,39.3,29.83,WSW,247,0.0,0.0,77,0.00,,,0.00,WUHU21523XXSP,2013-02-24 02:00:00,
2013-02-23 21:05:00,46.0,39.3,29.83,WSW,247,0.0,0.0,77,0.00,,,0.00,WUHU21523XXSP,2013-02-24 02:05:00,
2013-02-23 21:10:00,45.7,38.9,29.83,WSW,247,0.0,0.0,77,0.00,,,0.00,WUHU21523XXSP,2013-02-24 02:10:00,
2013-02-23 21:15:00,45.7,38.9,29.82,WSW,247,0.0,0.0,77,0.00,,,0.00,WUHU21523XXSP,2013-02-24 02:15:00,
2013-02-23 21:20:00,45.7,38.9,29.82,WSW,247,0.0,0.0,77,0.00,,,0.00,WUHU21523XXSP,2013-02-24 02:20:00,
2013-02-23 21:25:00,45.7,38.9,29.82,WSW,247,0.0,0.0,77,0.00,,,0.00,WUHU21523XXSP,2013-02-24 02:25:00,
2013-02-23 21:30:00,45.7,38.9,29.82,WSW,247,0.0,0.0,77,0.00,,,0.00,WUHU21523XXSP,2013-02-24 02:30:00,
2013-02-23 21:35:00,45.5,38.7,29.82,WSW,247,0.0,0.0,77,0.00,,,0.00,WUHU21523XXSP,2013-02-24 02:35:00,
2013-02-23 21:40:00,45.3,38.5,29.82,WSW,247,0.0,0.0,77,0.00,,,0.00,WUHU21523XXSP,2013-02-24 02:40:00,
2013-02-23 21:45:00,45.3,38.5,29.82,WSW,247,0.0,0.0,77,0.00,,,0.00,WUHU21523XXSP,2013-02-24 02:45:00,
2013-02-23 21:50:00,45.1,38.4,29.82,WSW,247,0.0,0.0,77,0.00,,,0.00,WUHU21523XXSP,2013-02-24 02:50:00,
2013-02-23 21:55:00,45.1,38.4,29.83,WSW,247,0.0,0.0,78,0.00,,,0.00,WUHU21523XXSP,2013-02-24 02:55:00,
2013-02-23 22:00:00,45.0,38.5,29.83,WSW,247,0.0,0.0,78,0.00,,,0.00,WUHU21523XXSP,2013-02-24 03:00:00,
2013-02-23 22:05:00,45.0,38.5,29.83,WSW,247,0.0,0.0,78,0.00,,,0.00,WUHU21523XXSP,2013-02-24 03:05:00,
2013-02-23 22:10:00,44.8,38.3,29.82,WSW,247,0.0,0.0,78,0.00,,,0.00,WUHU21523XXSP,2013-02-24 03:10:00,
2013-02-23 22:15:00,44.8,38.3,29.82,WSW,247,0.0,0.0,78,0.00,,,0.00,WUHU21523XXSP,2013-02-24 03:15:00,
2013-02-23 22:20:00,44.8,38.3,29.83,WSW,247,0.0,0.0,78,0.00,,,0.00,WUHU21523XXSP,2013-02-24 03:20:00,
2013-02-23 22:25:00,44.6,38.2,29.82,WSW,247,0.0,0.0,78,0.00,,,0.00,WUHU21523XXSP,2013-02-24 03:25:00,
2013-02-23 22:30:00,44.6,38.2,29.83,WSW,247,0.0,0.0,78,0.00,,,0.00,WUHU21523XXSP,2013-02-24 03:30:00,
2013-02-23 22:35:00,44.4,38.3,29.83,WSW,247,0.0,0.0,79,0.00,,,0.00,WUHU21523XXSP,2013-02-24 03:35:00,
2013-02-23 22:40:00,44.4,38.3,29.83,WSW,247,0.0,0.0,79,0.00,,,0.00,WUHU21523XXSP,2013-02-24 03:40:00,
2013-02-23 22:45:00,44.4,38.3,29.83,WSW,247,0.0,0.0,79,0.00,,,0.00,WUHU21523XXSP,2013-02-24 03:45:00,
2013-02-23 22:50:00,44.2,38.1,29.83,WSW,247,0.0,0.0,79,0.00,,,0.00,WUHU21523XXSP,2013-02-24 03:50:00,
2013-02-23 22:55:00,44.1,37.6,29.83,WSW,247,0.0,0.0,78,0.00,,,0.00,WUHU21523XXSP,2013-02-24 03:55:00,
2013-02-23 23:00:00,43.9,37.4,29.83,WSW,247,0.0,0.0,78,0.00,,,0.00,WUHU21523XXSP,2013-02-24 04:00:00,
2013-02-23 23:05:00,43.7,37.3,29.83,WSW,247,0.0,0.0,78,0.00,,,0.00,WUHU21523XXSP,2013-02-24 04:05:00,
2013-02-23 23:10:00,43.5,37.1,29.83,WSW,247,0.0,0.0,78,0.00,,,0.00,WUHU21523XXSP,2013-02-24 04:10:00,
2013-02-23 23:15:00,43.5,37.4,29.82,WSW,247,0.0,0.0,79,0.00,,,0.00,WUHU21523XXSP,2013-02-24 04:15:00,
2013-02-23 23:20:00,43.5,37.4,29.82,WSW,247,0.0,0.0,79,0.00,,,0.00,WUHU21523XXSP,2013-02-24 04:20:00,
2013-02-23 23:25:00,43.3,37.2,29.83,WSW,247,0.0,0.0,79,0.00,,,0.00,WUHU21523XXSP,2013-02-24 04:25:00,
2013-02-23 23:30:00,43.3,37.2,29.83,WSW,247,0.0,0.0,79,0.00,,,0.00,WUHU21523XXSP,2013-02-24 04:30:00,
2013-02-23 23:35:00,43.2,37.1,29.82,WSW,247,0.0,0.0,79,0.00,,,0.00,WUHU21523XXSP,2013-02-24 04:35:00,
2013-02-23 23:40:00,43.2,37.1,29.82,WSW,247,0.0,0.0,79,0.00,,,0.00,WUHU21523XXSP,2013-02-24 04:40:00,
2013-02-23 23:45:00,43.0,36.9,29.82,WSW,247,0.0,0.0,79,0.00,,,0.00,WUHU21523XXSP,2013-02-24 04:45:00,
2013-02-23 23:50:00,43.0,37.2,29.82,WSW,247,0.0,0.0,80,0.00,,,0.00,WUHU21523XXSP,2013-02-24 04:50:00,
2013-02-23 23:55:00,43.0,37.2,29.83,WSW,247,0.0,0.0,80,0.00,,,0.00,WUHU21523XXSP,2013-02-24 04:55:00,